Location: Lafig�re
(44.4503°N, 4.0357°E)
Time: 15:22:34
(UTC+00:00)

ARGOS - Pass Details

Date: 25 January 2021
Orbit: 821 x 834 km, 98.4° (Epoch: 05 March)

Event Time Altitude Azimuth Distance (km) Brightness Sun altitude
Rises 19:16:45 0° 181° (S) 3,339 6.3 -27.2°
Reaches altitude 10° 19:19:10 10° 188° (S) 2,412 5.6 -27.7°
Maximum altitude 19:24:19 47° 261° (W) 1,084 4.1 -28.6°
Drops below altitude 10° 19:29:30 10° 335° (NNW) 2,436 5.9 -29.5°
Sets 19:31:58 0° 341° (NNW) 3,376 6.6 -29.9°
